QPF
0.05 0.06 0.06 0.07 0.08 0.07 0.06 0.06 0.05 0.05 0.05 0.06 0.07 0.07 0.06 0.06 0.06 0.05 0.04 0.02 0.01 0.00 0.00 0.01 0.02 0.02 0.02 0.03 0.02 0.02 0.02 0.02 0.01 0.01 0.01 0.01 0.01 0.01 0.01 0.01 0.01 0.01 0.01
0.09 0.07 0.05 0.05 0.06 0.07 0.07 0.06 0.05 0.05 0.05 0.05 0.04 0.05 0.06 0.06 0.06 0.05 0.04 0.03 0.02 0.01 0.00 0.01 0.01 0.02 0.03 0.03 0.02 0.02 0.02 0.01 0.01 0.01 0.01 0.01 0.01 0.01 0.01 0.01 0.01 0.01 0.01
0.12 0.12 0.10 0.06 0.05 0.07 0.08 0.09 0.07 0.07 0.06 0.04 0.04 0.04 0.04 0.05 0.05 0.04 0.04 0.03 0.02 0.01 0.01 0.01 0.01 0.02 0.02 0.02 0.02 0.02 0.01 0.01 0.01 0.01 0.01 0.01 0.01 0.01 0.01 0.01 0.01 0.01 0.01
0.09 0.11 0.12 0.10 0.07 0.07 0.07 0.08 0.09 0.08 0.07 0.05 0.04 0.04 0.03 0.04 0.04 0.04 0.04 0.04 0.03 0.02 0.01 0.01 0.01 0.01 0.01 0.02 0.02 0.02 0.02 0.01 0.01 0.00 0.00 0.01 0.01 0.01 0.01 0.01 0.01 0.01 0.01
0.07 0.08 0.09 0.10 0.10 0.08 0.06 0.06 0.08 0.08 0.08 0.06 0.05 0.05 0.04 0.04 0.04 0.04 0.04 0.04 0.05 0.04 0.03 0.01 0.01 0.01 0.01 0.02 0.03 0.02 0.02 0.02 0.02 0.01 0.01 0.01 0.01 0.01 0.01 0.01 0.01 0.01 0.01
0.08 0.09 0.09 0.09 0.10 0.08 0.07 0.06 0.06 0.06 0.07 0.07 0.06 0.06 0.05 0.05 0.06 0.06 0.05 0.05 0.06 0.07 0.06 0.04 0.03 0.02 0.01 0.01 0.01 0.02 0.02 0.02 0.02 0.02 0.02 0.01 0.01 0.01 0.01 0.01 0.01 0.01 0.01
0.05 0.06 0.06 0.07 0.10 0.10 0.10 0.11 0.07 0.05 0.05 0.06 0.06 0.06 0.06 0.06 0.04 0.05 0.05 0.04 0.04 0.04 0.06 0.06 0.05 0.04 0.02 0.02 0.01 0.01 0.01 0.01 0.01 0.02 0.02 0.02 0.01 0.01 0.01 0.01 0.02 0.02 0.02
0.02 0.03 0.03 0.05 0.07 0.07 0.07 0.09 0.08 0.05 0.04 0.05 0.05 0.06 0.06 0.07 0.06 0.05 0.03 0.03 0.03 0.03 0.03 0.04 0.04 0.04 0.03 0.03 0.03 0.02 0.01 0.01 0.02 0.02 0.03 0.02 0.02 0.02 0.02 0.02 0.02 0.02 0.03
0.01 0.01 0.01 0.03 0.05 0.06 0.05 0.06 0.06 0.05 0.04 0.03 0.03 0.05 0.05 0.06 0.05 0.04 0.04 0.03 0.03 0.03 0.02 0.02 0.03 0.03 0.03 0.03 0.03 0.03 0.02 0.01 0.01 0.02 0.03 0.03 0.03 0.03 0.03 0.03 0.04 0.04 0.04
0.01 0.01 0.01 0.01 0.03 0.04 0.04 0.06 0.07 0.06 0.05 0.04 0.03 0.03 0.04 0.04 0.05 0.04 0.04 0.04 0.03 0.03 0.03 0.03 0.03 0.02 0.02 0.02 0.03 0.03 0.03 0.02 0.02 0.02 0.03 0.03 0.04 0.04 0.04 0.04 0.04 0.04 0.04
0.00 0.01 0.01 0.01 0.02 0.03 0.04 0.04 0.07 0.07 0.06 0.04 0.04 0.04 0.04 0.03 0.04 0.06 0.06 0.07 0.06 0.05 0.05 0.04 0.03 0.02 0.02 0.03 0.03 0.03 0.03 0.03 0.05 0.05 0.05 0.06 0.06 0.06 0.06 0.06 0.05 0.05 0.04
0.01 0.00 0.01 0.01 0.02 0.03 0.03 0.03 0.04 0.06 0.06 0.05 0.04 0.04 0.03 0.03 0.03 0.04 0.05 0.06 0.07 0.07 0.06 0.05 0.04 0.03 0.02 0.02 0.03 0.03 0.03 0.02 0.03 0.04 0.06 0.07 0.08 0.07 0.06 0.07 0.07 0.06 0.05
0.01 0.01 0.01 0.01 0.02 0.02 0.02 0.03 0.03 0.04 0.05 0.04 0.04 0.04 0.03 0.02 0.02 0.03 0.03 0.03 0.03 0.03 0.04 0.04 0.04 0.03 0.02 0.02 0.02 0.02 0.02 0.02 0.02 0.02 0.02 0.03 0.03 0.03 0.03 0.04 0.05 0.05 0.05
0.00 0.00 0.01 0.00 0.00 0.01 0.02 0.02 0.02 0.03 0.03 0.03 0.03 0.03 0.02 0.02 0.01 0.01 0.01 0.02 0.02 0.02 0.02 0.02 0.03 0.03 0.03 0.03 0.03 0.03 0.02 0.02 0.01 0.01 0.01 0.02 0.02 0.02 0.02 0.02 0.03 0.03 0.03
0.01 0.00 0.00 0.00 0.00 0.01 0.01 0.02 0.02 0.02 0.02 0.02 0.02 0.02 0.02 0.02 0.01 0.01 0.01 0.02 0.02 0.03 0.03 0.02 0.02 0.02 0.02 0.02 0.03 0.03 0.02 0.02 0.02 0.01 0.01 0.01 0.01 0.02 0.02 0.02 0.02 0.02 0.02
0.01 0.01 0.01 0.01 0.01 0.01 0.01 0.01 0.01 0.01 0.02 0.02 0.02 0.03 0.03 0.03 0.02 0.02 0.01 0.01 0.02 0.02 0.03 0.03 0.03 0.02 0.02 0.02 0.02 0.01 0.01 0.02 0.01 0.01 0.01 0.01 0.01 0.02 0.02 0.02 0.02 0.02 0.02
0.01 0.01 0.01 0.01 0.01 0.01 0.01 0.02 0.02 0.02 0.02 0.03 0.03 0.03 0.04 0.04 0.03 0.02 0.02 0.02 0.02 0.02 0.02 0.02 0.02 0.02 0.02 0.02 0.02 0.01 0.01 0.01 0.01 0.01 0.01 0.01 0.01 0.01 0.01 0.02 0.02 0.02 0.02
0.01 0.01 0.01 0.01 0.01 0.01 0.01 0.02 0.02 0.02 0.02 0.03 0.03 0.03 0.03 0.03 0.04 0.04 0.03 0.03 0.02 0.02 0.03 0.02 0.02 0.02 0.02 0.01 0.01 0.01 0.01 0.01 0.00 0.00 0.00 0.00 0.01 0.01 0.01 0.01 0.01 0.02 0.02
0.00 0.01 0.01 0.01 0.01 0.01 0.01 0.02 0.02 0.02 0.02 0.02 0.02 0.01 0.02 0.02 0.03 0.04 0.03 0.03 0.03 0.03 0.02 0.02 0.02 0.02 0.02 0.01 0.01 0.01 0.01 0.00 0.00 0.00 0.01 0.01 0.01 0.01 0.01 0.01 0.01 0.02 0.02
0.01 0.01 0.01 0.01 0.01 0.01 0.01 0.01 0.02 0.01 0.02 0.02 0.02 0.02 0.02 0.01 0.01 0.02 0.02 0.02 0.02 0.01 0.01 0.01 0.01 0.01 0.01 0.01 0.01 0.01 0.01 0.01 0.01 0.01 0.01 0.01 0.01 0.01 0.01 0.01 0.01 0.01 0.01
0.01 0.01 0.01 0.01 0.01 0.01 0.01 0.01 0.01 0.01 0.01 0.01 0.01 0.01 0.01 0.01 0.01 0.01 0.01 0.01 0.01 0.01 0.01 0.01 0.01 0.01 0.01 0.01 0.01 0.01 0.01 0.01 0.01 0.01 0.01 0.01 0.01 0.01 0.01 0.01 0.01 0.01 0.01
0.01 0.01 0.01 0.01 0.01 0.01 0.01 0.02 0.01 0.01 0.01 0.01 0.01 0.01 0.01 0.01 0.01 0.01 0.01 0.01 0.01 0.01 0.01 0.01 0.01 0.01 0.01 0.01 0.01 0.01 0.01 0.01 0.01 0.01 0.01 0.01 0.01 0.01 0.01 0.01 0.01 0.01 0.01
0.02 0.02 0.02 0.01 0.01 0.01 0.01 0.01 0.01 0.01 0.01 0.02 0.01 0.01 0.01 0.01 0.01 0.01 0.01 0.01 0.01 0.01 0.01 0.01 0.00 0.00 0.00 0.00 0.01 0.01 0.01 0.01 0.01 0.01 0.01 0.01 0.01 0.01 0.00 0.01 0.01 0.01 0.01
0.02 0.02 0.02 0.02 0.02 0.02 0.02 0.02 0.02 0.01 0.01 0.02 0.02 0.02 0.01 0.01 0.01 0.01 0.01 0.01 0.01 0.01 0.01 0.01 0.00 0.00 0.00 0.00 0.00 0.00 0.01 0.01 0.01 0.00 0.01 0.01 0.01 0.01 0.01 0.01 0.01 0.01 0.01
0.02 0.02 0.02 0.03 0.02 0.02 0.02 0.02 0.01 0.01 0.01 0.01 0.02 0.02 0.02 0.02 0.02 0.01 0.01 0.01 0.01 0.01 0.01 0.01 0.01 0.00 0.00 0.00 0.00 0.00 0.00 0.01 0.01 0.00 0.00 0.01 0.00 0.00 0.01 0.00 0.01 0.01 0.01
0.02 0.03 0.03 0.03 0.02 0.02 0.02 0.01 0.01 0.01 0.01 0.01 0.01 0.02 0.02 0.02 0.02 0.01 0.01 0.01 0.01 0.01 0.01 0.01 0.01 0.00 0.00 0.00 0.00 0.00 0.01 0.01 0.01 0.01 0.00 0.01 0.01 0.01 0.01 0.00 0.01 0.01 0.01
MSLP
1016.76 1016.57 1016.33 1016.06 1015.81 1015.60 1015.44 1015.33 1015.26 1015.19 1015.11 1015.00 1014.84 1014.65 1014.44 1014.26 1014.12 1014.05 1014.06 1014.14 1014.29 1014.48 1014.69 1014.91 1015.13 1015.34 1015.55 1015.77 1015.98 1016.21 1016.43 1016.66 1016.87 1017.08 1017.27 1017.45 1017.62 1017.76 1017.89 1018.00 1018.08 1018.14 1018.18
1017.08 1016.87 1016.59 1016.29 1015.99 1015.72 1015.50 1015.33 1015.19 1015.06 1014.92 1014.75 1014.55 1014.32 1014.08 1013.85 1013.68 1013.56 1013.53 1013.57 1013.68 1013.85 1014.04 1014.26 1014.47 1014.70 1014.91 1015.14 1015.36 1015.58 1015.81 1016.04 1016.28 1016.50 1016.72 1016.93 1017.12 1017.30 1017.45 1017.58 1017.68 1017.75 1017.81
1017.36 1017.14 1016.86 1016.54 1016.22 1015.92 1015.66 1015.44 1015.25 1015.06 1014.88 1014.66 1014.42 1014.15 1013.86 1013.60 1013.36 1013.19 1013.08 1013.06 1013.10 1013.21 1013.37 1013.56 1013.78 1014.00 1014.24 1014.47 1014.71 1014.95 1015.18 1015.42 1015.66 1015.90 1016.13 1016.36 1016.58 1016.77 1016.95 1017.10 1017.22 1017.31 1017.39
1017.55 1017.35 1017.08 1016.78 1016.47 1016.18 1015.90 1015.65 1015.43 1015.21 1014.98 1014.73 1014.45 1014.14 1013.82 1013.50 1013.20 1012.95 1012.76 1012.64 1012.60 1012.63 1012.73 1012.89 1013.09 1013.31 1013.56 1013.82 1014.07 1014.33 1014.57 1014.82 1015.05 1015.29 1015.52 1015.75 1015.98 1016.19 1016.38 1016.54 1016.68 1016.80 1016.90
1017.67 1017.49 1017.26 1017.01 1016.74 1016.46 1016.20 1015.94 1015.70 1015.46 1015.20 1014.93 1014.62 1014.29 1013.93 1013.56 1013.20 1012.87 1012.58 1012.37 1012.22 1012.17 1012.19 1012.30 1012.47 1012.69 1012.95 1013.22 1013.50 1013.76 1014.02 1014.25 1014.48 1014.70 1014.92 1015.13 1015.34 1015.55 1015.74 1015.92 1016.06 1016.19 1016.30
1017.70 1017.56 1017.39 1017.20 1016.98 1016.76 1016.52 1016.28 1016.03 1015.78 1015.51 1015.22 1014.90 1014.55 1014.18 1013.78 1013.37 1012.97 1012.60 1012.28 1012.03 1011.87 1011.81 1011.85 1011.98 1012.19 1012.44 1012.72 1013.01 1013.28 1013.53 1013.76 1013.96 1014.15 1014.33 1014.51 1014.69 1014.88 1015.05 1015.22 1015.37 1015.50 1015.61
1017.69 1017.59 1017.49 1017.37 1017.22 1017.04 1016.84 1016.62 1016.38 1016.12 1015.85 1015.56 1015.25 1014.91 1014.53 1014.12 1013.69 1013.24 1012.80 1012.39 1012.05 1011.79 1011.64 1011.61 1011.68 1011.85 1012.09 1012.36 1012.64 1012.91 1013.15 1013.35 1013.52 1013.66 1013.79 1013.92 1014.05 1014.20 1014.34 1014.49 1014.62 1014.74 1014.85
1017.65 1017.61 1017.56 1017.51 1017.42 1017.30 1017.14 1016.94 1016.71 1016.46 1016.20 1015.92 1015.63 1015.31 1014.96 1014.57 1014.14 1013.67 1013.18 1012.72 1012.29 1011.94 1011.70 1011.58 1011.59 1011.71 1011.90 1012.15 1012.42 1012.66 1012.88 1013.04 1013.16 1013.25 1013.32 1013.39 1013.47 1013.56 1013.66 1013.77 1013.88 1013.99 1014.08
1017.62 1017.62 1017.63 1017.63 1017.60 1017.53 1017.40 1017.22 1017.00 1016.76 1016.51 1016.26 1016.01 1015.74 1015.44 1015.09 1014.69 1014.23 1013.73 1013.22 1012.74 1012.32 1011.99 1011.79 1011.71 1011.76 1011.91 1012.11 1012.34 1012.55 1012.73 1012.85 1012.92 1012.96 1012.96 1012.97 1012.98 1013.02 1013.07 1013.14 1013.22 1013.29 1013.36
1017.59 1017.63 1017.69 1017.74 1017.75 1017.70 1017.60 1017.43 1017.23 1017.01 1016.79 1016.58 1016.37 1016.16 1015.93 1015.64 1015.29 1014.87 1014.38 1013.86 1013.34 1012.86 1012.46 1012.18 1012.03 1012.00 1012.08 1012.22 1012.40 1012.56 1012.70 1012.78 1012.80 1012.79 1012.74 1012.69 1012.64 1012.62 1012.62 1012.65 1012.68 1012.73 1012.77
1017.57 1017.64 1017.73 1017.80 1017.84 1017.82 1017.73 1017.58 1017.39 1017.19 1017.00 1016.83 1016.68 1016.54 1016.38 1016.17 1015.89 1015.52 1015.07 1014.56 1014.03 1013.51 1013.06 1012.71 1012.48 1012.38 1012.38 1012.46 1012.58 1012.69 1012.78 1012.82 1012.80 1012.74 1012.65 1012.56 1012.46 1012.39 1012.35 1012.33 1012.32 1012.32 1012.33
1017.53 1017.61 1017.72 1017.82 1017.87 1017.86 1017.78 1017.65 1017.48 1017.31 1017.15 1017.03 1016.93 1016.86 1016.77 1016.63 1016.42 1016.12 1015.72 1015.24 1014.72 1014.19 1013.71 1013.31 1013.02 1012.85 1012.78 1012.79 1012.85 1012.91 1012.95 1012.95 1012.90 1012.81 1012.69 1012.56 1012.43 1012.33 1012.24 1012.18 1012.13 1012.09 1012.05
1017.43 1017.53 1017.65 1017.75 1017.82 1017.82 1017.76 1017.64 1017.50 1017.35 1017.22 1017.14 1017.10 1017.07 1017.05 1016.98 1016.85 1016.61 1016.27 1015.84 1015.35 1014.84 1014.35 1013.93 1013.59 1013.37 1013.24 1013.18 1013.18 1013.18 1013.18 1013.14 1013.07 1012.95 1012.81 1012.66 1012.52 1012.38 1012.26 1012.17 1012.08 1012.00 1011.91
1017.25 1017.36 1017.49 1017.60 1017.67 1017.69 1017.64 1017.55 1017.43 1017.31 1017.22 1017.17 1017.16 1017.18 1017.20 1017.19 1017.12 1016.94 1016.67 1016.30 1015.87 1015.39 1014.93 1014.50 1014.15 1013.89 1013.71 1013.60 1013.53 1013.49 1013.44 1013.36 1013.26 1013.13 1012.97 1012.81 1012.65 1012.49 1012.35 1012.22 1012.10 1011.98 1011.85
1016.98 1017.11 1017.25 1017.37 1017.45 1017.48 1017.45 1017.38 1017.29 1017.20 1017.14 1017.11 1017.13 1017.17 1017.23 1017.26 1017.23 1017.11 1016.91 1016.61 1016.24 1015.83 1015.41 1015.02 1014.67 1014.39 1014.17 1014.01 1013.89 1013.79 1013.69 1013.58 1013.44 1013.29 1013.12 1012.94 1012.77 1012.59 1012.43 1012.28 1012.12 1011.97 1011.80
1016.62 1016.77 1016.92 1017.06 1017.15 1017.21 1017.21 1017.16 1017.10 1017.03 1016.98 1016.97 1017.00 1017.06 1017.13 1017.18 1017.19 1017.13 1016.99 1016.77 1016.48 1016.15 1015.80 1015.45 1015.12 1014.84 1014.60 1014.40 1014.23 1014.07 1013.91 1013.75 1013.58 1013.40 1013.21 1013.01 1012.82 1012.63 1012.44 1012.26 1012.08 1011.90 1011.71
1016.19 1016.37 1016.54 1016.70 1016.82 1016.89 1016.92 1016.90 1016.86 1016.82 1016.78 1016.78 1016.80 1016.86 1016.93 1016.99 1017.03 1017.02 1016.94 1016.81 1016.61 1016.36 1016.08 1015.79 1015.51 1015.23 1014.98 1014.74 1014.52 1014.30 1014.09 1013.88 1013.66 1013.44 1013.22 1013.00 1012.78 1012.56 1012.35 1012.14 1011.94 1011.73 1011.53
1015.72 1015.93 1016.13 1016.31 1016.45 1016.55 1016.60 1016.61 1016.59 1016.56 1016.54 1016.53 1016.55 1016.60 1016.67 1016.74 1016.80 1016.83 1016.82 1016.75 1016.64 1016.48 1016.28 1016.06 1015.82 1015.56 1015.30 1015.03 1014.77 1014.49 1014.22 1013.95 1013.68 1013.42 1013.16 1012.90 1012.65 1012.40 1012.16 1011.92 1011.68 1011.46 1011.24
1015.23 1015.48 1015.70 1015.91 1016.07 1016.19 1016.27 1016.30 1016.30 1016.28 1016.26 1016.26 1016.28 1016.32 1016.38 1016.46 1016.54 1016.60 1016.64 1016.64 1016.60 1016.52 1016.40 1016.24 1016.03 1015.80 1015.54 1015.25 1014.94 1014.63 1014.30 1013.98 1013.66 1013.35 1013.05 1012.75 1012.46 1012.17 1011.89 1011.61 1011.34 1011.09 1010.86
1014.74 1015.01 1015.26 1015.48 1015.67 1015.81 1015.90 1015.95 1015.97 1015.97 1015.96 1015.96 1015.98 1016.03 1016.09 1016.18 1016.27 1016.36 1016.43 1016.49 1016.51 1016.49 1016.43 1016.31 1016.15 1015.93 1015.67 1015.37 1015.04 1014.70 1014.34 1013.97 1013.62 1013.26 1012.92 1012.58 1012.25 1011.91 1011.58 1011.26 1010.94 1010.66 1010.40
1014.22 1014.51 1014.78 1015.02 1015.22 1015.38 1015.48 1015.55 1015.59 1015.61 1015.62 1015.64 1015.67 1015.73 1015.80 1015.89 1015.99 1016.10 1016.21 1016.29 1016.35 1016.37 1016.34 1016.26 1016.13 1015.93 1015.68 1015.38 1015.05 1014.69 1014.31 1013.93 1013.55 1013.18 1012.80 1012.43 1012.05 1011.67 1011.28 1010.90 1010.54 1010.20 1009.91
1013.66 1013.96 1014.24 1014.49 1014.70 1014.86 1014.99 1015.08 1015.14 1015.19 1015.23 1015.28 1015.34 1015.41 1015.50 1015.60 1015.71 1015.83 1015.94 1016.04 1016.11 1016.14 1016.14 1016.08 1015.96 1015.78 1015.54 1015.26 1014.94 1014.59 1014.22 1013.84 1013.47 1013.09 1012.70 1012.30 1011.89 1011.46 1011.03 1010.58 1010.15 1009.76 1009.41
1013.05 1013.34 1013.62 1013.86 1014.08 1014.26 1014.40 1014.52 1014.62 1014.70 1014.78 1014.87 1014.97 1015.07 1015.18 1015.29 1015.41 1015.52 1015.62 1015.71 1015.77 1015.80 1015.80 1015.74 1015.63 1015.47 1015.26 1015.01 1014.71 1014.39 1014.06 1013.71 1013.35 1012.99 1012.60 1012.20 1011.77 1011.30 1010.82 1010.31 1009.82 1009.35 1008.94
1012.36 1012.63 1012.90 1013.14 1013.36 1013.55 1013.72 1013.87 1014.01 1014.14 1014.28 1014.42 1014.55 1014.69 1014.82 1014.95 1015.06 1015.16 1015.24 1015.30 1015.34 1015.35 1015.33 1015.27 1015.17 1015.03 1014.85 1014.63 1014.38 1014.11 1013.82 1013.52 1013.20 1012.86 1012.50 1012.10 1011.65 1011.17 1010.64 1010.09 1009.53 1009.00 1008.51
1011.60 1011.85 1012.10 1012.34 1012.56 1012.76 1012.95 1013.14 1013.33 1013.53 1013.72 1013.91 1014.10 1014.28 1014.43 1014.57 1014.67 1014.75 1014.80 1014.83 1014.84 1014.82 1014.78 1014.71 1014.62 1014.49 1014.34 1014.17 1013.97 1013.75 1013.52 1013.27 1012.99 1012.69 1012.35 1011.96 1011.52 1011.02 1010.47 1009.88 1009.28 1008.68 1008.13
1010.79 1011.02 1011.26 1011.49 1011.71 1011.93 1012.16 1012.39 1012.63 1012.88 1013.14 1013.39 1013.62 1013.84 1014.02 1014.16 1014.25 1014.31 1014.34 1014.33 1014.30 1014.26 1014.20 1014.13 1014.04 1013.94 1013.82 1013.68 1013.53 1013.36 1013.17 1012.96 1012.72 1012.45 1012.13 1011.75 1011.32 1010.82 1010.26 1009.66 1009.02 1008.39 1007.78
Thickness
5685 5685 5685 5685 5686 5687 5687 5688 5688 5689 5689 5689 5689 5689 5689 5689 5688 5687 5685 5683 5681 5679 5677 5675 5673 5671 5669 5668 5666 5665 5663 5661 5659 5658 5656 5655 5653 5652 5651 5650 5649 5648 5647
5678 5678 5678 5678 5679 5680 5681 5682 5683 5683 5684 5684 5684 5684 5684 5684 5684 5683 5681 5679 5676 5674 5672 5670 5668 5666 5665 5663 5661 5659 5658 5656 5654 5652 5651 5649 5648 5647 5646 5644 5643 5642 5641
5670 5670 5671 5671 5673 5674 5675 5675 5676 5677 5677 5677 5677 5678 5679 5679 5679 5678 5676 5674 5672 5669 5667 5666 5664 5661 5659 5658 5656 5654 5652 5650 5649 5647 5645 5644 5643 5641 5640 5639 5638 5636 5636
5662 5663 5664 5664 5666 5667 5667 5668 5669 5669 5669 5669 5670 5671 5672 5672 5673 5672 5671 5669 5667 5665 5663 5661 5659 5656 5654 5652 5651 5649 5647 5645 5643 5641 5639 5638 5637 5636 5634 5633 5632 5631 5630
5655 5655 5656 5657 5658 5659 5660 5660 5661 5661 5661 5661 5662 5663 5664 5665 5665 5665 5665 5663 5662 5660 5658 5655 5653 5650 5648 5647 5645 5643 5641 5639 5637 5636 5634 5632 5631 5630 5628 5627 5626 5625 5624
5648 5648 5649 5650 5651 5651 5652 5652 5652 5652 5653 5653 5654 5655 5656 5657 5658 5657 5657 5657 5655 5653 5652 5649 5646 5644 5642 5640 5639 5637 5636 5634 5632 5630 5629 5627 5626 5625 5623 5622 5621 5620 5619
5639 5641 5642 5642 5643 5643 5644 5644 5643 5643 5643 5645 5644 5644 5646 5649 5650 5650 5649 5648 5647 5646 5644 5642 5640 5638 5636 5634 5632 5631 5629 5627 5625 5624 5622 5622 5620 5619 5618 5617 5616 5615 5613
5631 5633 5633 5634 5635 5634 5635 5635 5635 5635 5635 5636 5635 5633 5634 5636 5639 5641 5641 5640 5639 5638 5636 5635 5633 5632 5630 5628 5626 5624 5622 5620 5619 5617 5616 5615 5614 5614 5613 5612 5610 5609 5608
5623 5624 5625 5626 5627 5627 5626 5627 5627 5626 5626 5627 5628 5627 5625 5627 5627 5630 5631 5631 5630 5629 5628 5627 5626 5624 5622 5621 5619 5617 5615 5613 5611 5610 5610 5609 5608 5608 5607 5606 5605 5603 5602
5615 5616 5617 5618 5619 5619 5619 5620 5620 5620 5619 5619 5619 5620 5621 5621 5618 5618 5620 5621 5620 5619 5618 5618 5617 5616 5615 5613 5612 5610 5608 5606 5604 5604 5603 5603 5602 5601 5601 5600 5599 5598 5596
5607 5608 5608 5610 5611 5611 5612 5612 5613 5613 5613 5612 5611 5612 5612 5612 5612 5610 5609 5609 5609 5610 5609 5609 5608 5608 5606 5605 5603 5601 5600 5598 5597 5596 5596 5596 5596 5595 5594 5593 5592 5591 5589
5599 5600 5601 5602 5603 5604 5604 5605 5605 5605 5605 5605 5605 5605 5605 5604 5603 5602 5601 5600 5599 5600 5600 5600 5599 5599 5598 5596 5595 5593 5592 5591 5589 5588 5588 5588 5588 5587 5586 5585 5585 5584 5583
5590 5592 5593 5594 5595 5596 5597 5597 5597 5598 5598 5598 5599 5599 5599 5599 5598 5596 5594 5591 5590 5590 5591 5591 5591 5590 5589 5588 5586 5585 5584 5582 5581 5580 5580 5580 5579 5578 5577 5577 5577 5576 5575
5583 5584 5585 5587 5588 5589 5589 5589 5590 5590 5590 5591 5591 5591 5590 5590 5590 5588 5586 5583 5581 5581 5582 5583 5582 5581 5580 5579 5577 5576 5575 5574 5573 5572 5572 5571 5571 5570 5569 5568 5568 5567 5566
5576 5576 5578 5579 5580 5581 5581 5582 5582 5582 5582 5582 5583 5582 5582 5582 5581 5580 5579 5577 5574 5572 5574 5574 5572 5572 5571 5570 5569 5568 5567 5566 5566 5565 5564 5563 5562 5562 5561 5560 5559 5558 5557
5568 5568 5570 5571 5572 5573 5574 5574 5574 5574 5574 5574 5574 5573 5573 5572 5572 5571 5570 5569 5568 5567 5566 5565 5563 5563 5562 5561 5560 5559 5558 5558 5558 5557 5556 5555 5554 5553 5553 5552 5551 5550 5549
5561 5562 5563 5564 5564 5565 5565 5565 5565 5565 5565 5565 5564 5564 5564 5564 5563 5563 5562 5561 5560 5558 5557 5556 5554 5554 5553 5553 5552 5551 5550 5549 5549 5548 5547 5547 5546 5545 5545 5544 5543 5542 5540
5555 5555 5556 5557 5557 5557 5557 5557 5557 5557 5557 5557 5556 5556 5555 5555 5554 5553 5553 5552 5551 5550 5549 5547 5545 5544 5544 5543 5543 5542 5541 5541 5540 5540 5539 5538 5538 5537 5536 5536 5535 5533 5531
5548 5549 5549 5549 5550 5549 5549 5549 5549 5549 5549 5549 5548 5548 5548 5547 5546 5545 5544 5543 5541 5541 5540 5538 5537 5536 5535 5534 5534 5533 5533 5532 5532 5531 5531 5530 5529 5528 5527 5527 5525 5523 5521
5542 5542 5542 5542 5542 5542 5541 5541 5541 5540 5540 5540 5540 5540 5539 5539 5538 5536 5535 5534 5533 5531 5530 5529 5528 5527 5525 5525 5524 5524 5524 5523 5523 5522 5522 5521 5520 5519 5518 5517 5516 5514 5512
5537 5536 5536 5536 5536 5535 5534 5533 5532 5532 5531 5531 5531 5531 5531 5530 5529 5528 5528 5526 5524 5522 5520 5519 5518 5517 5516 5514 5514 5513 5513 5513 5514 5513 5512 5511 5510 5510 5508 5507 5505 5504 5503
5530 5530 5530 5529 5528 5528 5527 5526 5525 5523 5523 5522 5522 5522 5521 5521 5520 5520 5519 5518 5516 5514 5512 5510 5509 5507 5506 5505 5504 5503 5501 5501 5502 5503 5500 5502 5500 5499 5498 5497 5495 5494 5493
5524 5524 5524 5523 5522 5521 5520 5519 5517 5516 5515 5514 5513 5513 5513 5512 5511 5510 5509 5508 5507 5506 5505 5503 5500 5499 5497 5496 5494 5493 5491 5489 5490 5490 5488 5491 5490 5489 5489 5487 5486 5485 5484
5517 5517 5517 5517 5515 5514 5513 5512 5510 5509 5507 5506 5506 5505 5504 5503 5502 5502 5500 5499 5497 5496 5495 5494 5492 5490 5489 5487 5485 5483 5482 5480 5480 5479 5476 5477 5479 5479 5480 5478 5477 5476 5475
5511 5511 5510 5509 5508 5507 5506 5505 5503 5501 5500 5498 5498 5497 5496 5495 5495 5493 5491 5489 5488 5486 5486 5484 5483 5481 5479 5478 5476 5473 5471 5469 5469 5469 5465 5464 5466 5467 5469 5470 5469 5467 5466
5504 5504 5503 5502 5501 5500 5500 5498 5496 5494 5492 5491 5490 5489 5489 5487 5486 5485 5482 5480 5478 5477 5476 5474 5473 5471 5469 5467 5465 5462 5459 5457 5456 5456 5456 5453 5453 5452 5457 5460 5459 5457 5457